| time (UTC) | temp F | wind direction | speed MPH | gust MPH | rain 1hr in | rain 24hr in | rain mn in | humidity % | barometer mb |
| 20260504070145 | 29 | 225 | 0.0 | 3.0 | 0.00 | 0.18 | 0.00 | 77 | 1006.1 |
| 20260504060144 | 31 | 238 | 0.0 | 0.0 | 0.00 | 0.18 | 0.00 | 78 | 1006.0 |
| 20260504050620 | 32 | 238 | 0.0 | 1.0 | 0.00 | 0.19 | 0.00 | 79 | 1005.9 |
| 20260504045138 | 32 | 238 | 0.0 | 3.0 | 0.00 | 0.19 | 0.00 | 79 | 1005.8 |
| 20260504044136 | 32 | 238 | 1.0 | 3.0 | 0.00 | 0.19 | 0.00 | 79 | 1005.9 |
| 20260504043135 | 33 | 238 | 0.0 | 2.0 | 0.00 | 0.19 | 0.00 | 79 | 1005.9 |
| 20260504042136 | 33 | 238 | 0.0 | 2.0 | 0.00 | 0.19 | 0.00 | 79 | 1005.9 |
| 20260504041136 | 33 | 238 | 1.0 | 2.0 | 0.00 | 0.19 | 0.00 | 79 | 1005.9 |
| 20260504040136 | 33 | 238 | 0.0 | 2.0 | 0.00 | 0.19 | 0.00 | 80 | 1005.8 |
| 20260504035135 | 34 | 238 | 0.0 | 2.0 | 0.00 | 0.19 | 0.19 | 79 | 1005.7 |
| 20260504034134 | 34 | 238 | 0.0 | 2.0 | 0.00 | 0.19 | 0.19 | 80 | 1005.6 |
| 20260504033133 | 35 | 238 | 0.0 | 3.0 | 0.00 | 0.19 | 0.19 | 79 | 1005.6 |
| 20260504032620 | 35 | 238 | 1.0 | 3.0 | 0.00 | 0.19 | 0.19 | 79 | 1005.6 |
| 20260504031131 | 35 | 260 | 1.0 | 2.0 | 0.00 | 0.19 | 0.19 | 78 | 1005.6 |
| 20260504030131 | 36 | 260 | 0.0 | 2.0 | 0.00 | 0.19 | 0.19 | 77 | 1005.6 |
| 20260504025130 | 37 | 260 | 0.0 | 3.0 | 0.00 | 0.19 | 0.19 | 75 | 1005.5 |
| 20260504024130 | 37 | 271 | 0.0 | 2.0 | 0.00 | 0.19 | 0.19 | 73 | 1005.4 |
| 20260504023131 | 38 | 271 | 0.0 | 2.0 | 0.00 | 0.19 | 0.19 | 70 | 1005.3 |
| 20260504022131 | 39 | 271 | 0.0 | 2.0 | 0.00 | 0.19 | 0.19 | 68 | 1005.4 |
| 20260504021130 | 40 | 271 | 0.0 | 2.0 | 0.00 | 0.20 | 0.19 | 66 | 1005.4 |
| 20260504020130 | 41 | 271 | 1.0 | 4.0 | 0.00 | 0.20 | 0.19 | 65 | 1005.3 |
| 20260504015131 | 41 | 242 | 1.0 | 4.0 | 0.00 | 0.20 | 0.19 | 64 | 1005.3 |
| 20260504014130 | 42 | 267 | 1.0 | 5.0 | 0.00 | 0.20 | 0.19 | 63 | 1005.3 |
| 20260504013614 | 42 | 319 | 1.0 | 9.0 | 0.00 | 0.20 | 0.19 | 63 | 1005.3 |
| 20260504012131 | 43 | 294 | 3.0 | 9.0 | 0.00 | 0.20 | 0.19 | 61 | 1005.1 |
| 20260504011130 | 42 | 267 | 3.0 | 9.0 | 0.00 | 0.20 | 0.19 | 61 | 1005.0 |
| 20260504010131 | 43 | 309 | 2.0 | 7.0 | 0.00 | 0.21 | 0.19 | 61 | 1004.9 |
| 20260504005130 | 43 | 281 | 2.0 | 6.0 | 0.00 | 0.21 | 0.19 | 60 | 1004.7 |
| 20260504004130 | 44 | 325 | 2.0 | 6.0 | 0.00 | 0.21 | 0.19 | 59 | 1004.4 |
| 20260504003131 | 44 | 301 | 2.0 | 5.0 | 0.00 | 0.21 | 0.19 | 58 | 1004.2 |
| 20260504002131 | 44 | 203 | 2.0 | 8.0 | 0.00 | 0.22 | 0.19 | 58 | 1004.2 |
| 20260504001130 | 45 | 302 | 3.0 | 8.0 | 0.00 | 0.22 | 0.19 | 57 | 1004.1 |
| 20260504000130 | 45 | 300 | 3.0 | 11.0 | 0.00 | 0.23 | 0.19 | 56 | 1003.9 |
| 20260503235130 | 46 | 292 | 3.0 | 11.0 | 0.00 | 0.24 | 0.19 | 55 | 1003.7 |
| 20260503234131 | 46 | 317 | 4.0 | 10.0 | 0.00 | 0.25 | 0.19 | 54 | 1003.5 |
| 20260503233134 | 46 | 309 | 4.0 | 10.0 | 0.00 | 0.27 | 0.19 | 55 | 1003.4 |
| 20260503232133 | 47 | 340 | 4.0 | 13.0 | 0.00 | 0.27 | 0.19 | 53 | 1003.3 |
| 20260503231133 | 47 | 328 | 4.0 | 13.0 | 0.00 | 0.27 | 0.19 | 52 | 1003.2 |
| 20260503230618 | 48 | 342 | 5.0 | 17.0 | 0.00 | 0.28 | 0.19 | 51 | 1003.0 |
| 20260503225617 | 49 | 285 | 4.0 | 17.0 | 0.00 | 0.28 | 0.19 | 51 | 1002.9 |
| 20260503224134 | 49 | 325 | 5.0 | 14.0 | 0.00 | 0.28 | 0.19 | 51 | 1002.7 |
| 20260503223609 | 49 | 303 | 5.0 | 19.0 | 0.00 | 0.30 | 0.19 | 53 | 1002.5 |
| 20260503222134 | 49 | 317 | 5.0 | 16.0 | 0.00 | 0.31 | 0.19 | 52 | 1002.4 |
| 20260503221134 | 49 | 292 | 4.0 | 15.0 | 0.00 | 0.33 | 0.19 | 53 | 1002.3 |
| 20260503220133 | 49 | 299 | 4.0 | 14.0 | 0.00 | 0.34 | 0.19 | 54 | 1002.1 |
| 20260503215132 | 50 | 327 | 5.0 | 14.0 | 0.00 | 0.35 | 0.19 | 52 | 1001.9 |
| 20260503214608 | 50 | 323 | 3.0 | 11.0 | 0.00 | 0.36 | 0.19 | 55 | 1001.9 |
| 20260503213132 | 50 | 308 | 3.0 | 12.0 | 0.00 | 0.37 | 0.19 | 56 | 1001.8 |
| 20260503212616 | 50 | 311 | 4.0 | 9.0 | 0.00 | 0.37 | 0.19 | 56 | 1001.8 |
| 20260503211132 | 51 | 329 | 3.0 | 7.0 | 0.00 | 0.37 | 0.19 | 59 | 1001.8 |
| 20260503210132 | 51 | 319 | 2.0 | 4.0 | 0.00 | 0.37 | 0.19 | 64 | 1001.8 |
| 20260503205132 | 51 | 307 | 1.0 | 5.0 | 0.00 | 0.37 | 0.19 | 65 | 1001.8 |
| 20260503204131 | 50 | 329 | 1.0 | 5.0 | 0.00 | 0.37 | 0.19 | 66 | 1001.8 |
| 20260503203132 | 50 | 313 | 2.0 | 5.0 | 0.00 | 0.37 | 0.19 | 67 | 1001.8 |
| 20260503202132 | 50 | 299 | 2.0 | 5.0 | 0.00 | 0.37 | 0.19 | 69 | 1001.9 |
| 20260503201131 | 50 | 327 | 2.0 | 5.0 | 0.00 | 0.37 | 0.19 | 71 | 1002.1 |
| 20260503200129 | 50 | 323 | 1.0 | 4.0 | 0.00 | 0.37 | 0.19 | 72 | 1002.1 |
| 20260503195606 | 49 | 326 | 1.0 | 4.0 | 0.00 | 0.37 | 0.19 | 72 | 1002.3 |
| 20260503194128 | 49 | 23 | 1.0 | 6.0 | 0.00 | 0.37 | 0.19 | 72 | 1002.4 |
| 20260503193608 | 49 | 14 | 2.0 | 6.0 | 0.00 | 0.37 | 0.19 | 72 | 1002.5 |
| 20260503192129 | 49 | 328 | 1.0 | 5.0 | 0.00 | 0.37 | 0.19 | 73 | 1002.5 |
| 20260503191612 | 48 | 25 | 2.0 | 7.0 | 0.00 | 0.37 | 0.19 | 74 | 1002.6 |
| 20260503190129 | 48 | 46 | 2.0 | 7.0 | 0.00 | 0.37 | 0.19 | 75 | 1002.6 |
| 20260503185129 | 48 | 355 | 2.0 | 6.0 | 0.00 | 0.37 | 0.19 | 77 | 1002.7 |
| 20260503185041 | 48 | 66 | 2.0 | 6.0 | 0.00 | 0.38 | 0.19 | 78 | 1002.7 |
| 20260503183129 | 49 | 13 | 2.0 | 4.0 | 0.00 | 0.39 | 0.19 | 77 | 1002.8 |
| 20260503182129 | 48 | 50 | 2.0 | 5.0 | 0.00 | 0.39 | 0.19 | 78 | 1002.8 |
| 20260503181129 | 48 | 355 | 2.0 | 5.0 | 0.00 | 0.40 | 0.19 | 78 | 1002.9 |
| 20260503180610 | 48 | 0 | 2.0 | 7.0 | 0.00 | 0.40 | 0.19 | 78 | 1003.0 |
| 20260503175130 | 48 | 338 | 3.0 | 9.0 | 0.00 | 0.41 | 0.19 | 76 | 1002.9 |
| 20260503174129 | 47 | 355 | 3.0 | 9.0 | 0.00 | 0.41 | 0.19 | 72 | 1002.8 |
| 20260503173128 | 47 | 27 | 3.0 | 9.0 | 0.00 | 0.41 | 0.19 | 69 | 1003.0 |
| 20260503172605 | 47 | 311 | 3.0 | 10.0 | 0.00 | 0.42 | 0.19 | 65 | 1002.9 |
| 20260503171129 | 47 | 11 | 4.0 | 11.0 | 0.00 | 0.42 | 0.19 | 64 | 1002.9 |
| 20260503170128 | 47 | 340 | 4.0 | 13.0 | 0.00 | 0.43 | 0.19 | 62 | 1003.0 |
| 20260503160129 | 45 | 13 | 3.0 | 6.0 | 0.04 | 0.45 | 0.19 | 60 | 1003.7 |
| 20260503150602 | 43 | 12 | 3.0 | 7.0 | 0.05 | 0.41 | 0.15 | 61 | 1004.1 |
| 20260503131129 | 42 | 14 | 2.0 | 4.0 | 0.03 | 0.35 | 0.08 | 61 | 1005.1 |
| 20260503130128 | 42 | 324 | 2.0 | 5.0 | 0.02 | 0.34 | 0.08 | 62 | 1005.1 |
| 20260503120128 | 42 | 0 | 2.0 | 4.0 | 0.02 | 0.35 | 0.06 | 61 | 1005.7 |
| 20260503110129 | 41 | 5 | 2.0 | 4.0 | 0.00 | 0.34 | 0.04 | 62 | 1005.9 |
| 20260503100129 | 41 | 11 | 2.0 | 4.0 | 0.02 | 0.34 | 0.04 | 62 | 1005.5 |
| 20260503090129 | 41 | 20 | 0.0 | 2.0 | 0.01 | 0.32 | 0.01 | 62 | 1006.4 |
| 20260503080129 | 41 | 11 | 1.0 | 3.0 | 0.00 | 0.31 | 0.01 | 62 | 1006.9 |